Total_Precipitation_Accumulation
1.04 1.28 1.85 2.66 3.50 2.91 2.22 1.93 1.53 1.25 1.03 0.91 0.81 0.84 1.02 1.25 1.72 2.45 2.71 2.44 1.76 1.65 2.03 2.73 2.92 2.71 2.40 2.03 2.00 2.11 2.14 2.33 2.26 1.99 1.75 1.53 1.36 1.24 1.24 1.22 1.18 1.11 0.99 1.01 1.07 1.03 1.01 1.01 0.98
1.00 1.80 2.44 3.41 3.45 2.45 2.17 1.97 1.62 1.11 0.83 0.64 0.56 0.74 0.91 0.87 1.04 1.82 2.66 2.55 1.70 1.49 1.76 2.26 2.64 2.54 2.31 2.09 2.07 2.15 2.11 2.05 1.97 1.71 1.46 1.37 1.33 1.26 1.20 1.24 1.23 1.09 0.97 0.96 1.00 1.08 1.03 0.98 0.93
1.12 2.00 2.67 3.11 2.49 2.10 2.08 1.84 1.42 0.96 0.70 0.58 0.51 0.56 0.80 1.11 1.39 2.08 2.43 1.81 1.44 1.25 1.64 2.24 2.61 2.42 2.15 1.96 1.99 2.00 2.06 1.97 1.83 1.70 1.52 1.40 1.37 1.32 1.29 1.29 1.26 1.07 0.92 0.86 0.95 1.01 0.98 0.92 0.90
1.50 2.31 2.62 2.41 1.95 1.56 1.48 1.48 1.08 0.85 0.61 0.44 0.45 0.61 0.82 1.30 1.62 2.01 2.04 1.50 1.28 1.24 1.57 1.88 2.13 1.99 1.81 1.79 1.80 1.70 1.56 1.56 1.71 1.75 1.59 1.48 1.35 1.25 1.23 1.24 1.13 0.94 0.84 0.83 0.90 0.95 0.92 0.87 0.86
1.83 2.51 2.56 2.07 1.73 1.47 1.28 1.11 0.87 0.76 0.67 0.53 0.47 0.83 1.29 1.60 1.75 1.75 1.70 1.40 1.28 1.48 1.77 1.79 1.91 1.79 1.72 1.67 1.62 1.49 1.48 1.58 1.76 1.73 1.60 1.49 1.30 1.17 1.17 1.09 0.93 0.76 0.73 0.78 0.95 1.00 0.85 0.79 0.80
2.29 2.48 2.80 2.22 1.81 1.51 1.37 1.05 0.79 0.67 0.60 0.50 0.51 0.85 1.45 1.82 1.81 1.74 1.66 1.50 1.38 1.41 1.58 1.65 1.85 1.77 1.62 1.47 1.47 1.36 1.43 1.69 1.83 1.75 1.68 1.65 1.38 1.16 1.05 0.98 0.86 0.73 0.66 0.72 0.87 0.93 0.82 0.75 0.80
2.46 2.57 2.38 1.89 1.76 1.84 1.43 0.91 0.80 0.73 0.71 0.57 0.46 0.81 1.43 1.86 1.62 1.43 1.45 1.33 1.29 1.27 1.31 1.26 1.34 1.44 1.41 1.40 1.48 1.48 1.60 1.72 1.74 1.61 1.56 1.52 1.20 0.97 0.88 0.86 0.83 0.77 0.77 0.81 0.85 0.91 0.86 0.83 0.88
1.70 1.86 1.86 1.76 1.80 1.80 1.25 0.78 0.66 0.62 0.67 0.46 0.41 0.74 1.32 1.52 1.30 1.32 1.30 1.27 1.29 1.23 1.17 1.02 1.04 1.23 1.36 1.36 1.47 1.58 1.66 1.63 1.67 1.51 1.41 1.27 0.98 0.83 0.83 0.76 0.76 0.72 0.75 0.83 0.87 0.91 0.87 0.84 0.87
1.58 1.87 2.10 1.98 1.73 1.52 1.07 0.84 0.61 0.45 0.48 0.42 0.38 0.46 0.69 0.88 0.99 1.17 1.25 1.19 1.33 1.20 1.08 1.01 0.90 0.95 1.15 1.28 1.31 1.57 1.66 1.60 1.44 1.38 1.37 1.15 0.79 0.68 0.73 0.71 0.85 0.83 0.87 0.91 0.94 0.91 0.84 0.79 0.74
1.57 1.95 1.99 1.46 1.12 1.07 0.98 0.85 0.69 0.63 0.67 0.56 0.49 0.49 0.55 0.71 0.87 0.98 1.07 1.09 1.16 1.15 0.97 0.91 0.85 0.82 0.82 0.89 1.18 1.57 1.41 1.31 1.07 1.05 1.05 1.00 0.90 0.85 0.70 0.78 0.98 0.98 0.98 0.96 0.95 0.89 0.74 0.59 0.53
1.27 1.39 1.26 1.17 0.85 0.73 0.87 0.82 0.63 0.67 0.77 0.59 0.55 0.53 0.54 0.64 0.70 0.77 0.88 0.91 0.92 1.00 0.94 0.85 0.76 0.71 0.75 0.85 0.95 1.15 1.21 1.20 1.05 0.90 0.89 0.97 0.93 0.82 0.69 0.66 0.74 0.82 0.89 0.80 0.77 0.75 0.59 0.53 0.57
1.12 1.02 0.89 0.86 0.68 0.69 0.88 0.76 0.65 0.74 0.70 0.46 0.38 0.41 0.52 0.60 0.60 0.61 0.73 0.87 0.91 0.95 0.95 0.88 0.78 0.74 0.72 0.70 0.68 0.76 0.80 0.85 0.88 0.82 0.79 0.90 0.86 0.80 0.77 0.76 0.71 0.71 0.76 0.82 0.79 0.74 0.65 0.60 0.62
1.03 0.96 0.78 0.64 0.67 0.70 0.77 0.81 0.70 0.71 0.59 0.48 0.40 0.49 0.56 0.56 0.56 0.58 0.65 0.77 0.84 0.88 0.94 0.91 0.81 0.74 0.74 0.72 0.63 0.62 0.70 0.74 0.82 0.86 0.77 0.78 0.82 0.81 0.76 0.72 0.77 0.78 0.76 0.80 0.80 0.70 0.64 0.64 0.62
0.96 0.89 0.82 0.68 0.68 0.72 0.78 0.82 0.77 0.83 0.65 0.53 0.45 0.50 0.53 0.56 0.56 0.59 0.62 0.72 0.75 0.77 0.92 0.95 0.86 0.82 0.77 0.72 0.63 0.63 0.70 0.79 0.80 0.69 0.64 0.68 0.72 0.75 0.83 0.84 0.84 0.84 0.83 0.91 0.90 0.70 0.71 0.76 0.73
0.85 0.90 0.89 0.81 0.79 0.78 0.81 1.02 0.94 0.87 0.74 0.70 0.58 0.49 0.51 0.50 0.50 0.57 0.58 0.65 0.72 0.79 0.91 0.92 0.89 0.98 0.88 0.78 0.75 0.67 0.71 0.78 0.81 0.78 0.73 0.74 0.75 0.77 0.86 0.92 0.93 0.91 0.89 0.94 1.17 1.03 0.80 0.76 0.77
0.97 1.07 1.23 0.88 0.79 0.82 0.97 1.19 0.89 0.87 0.85 0.91 0.73 0.60 0.55 0.52 0.50 0.49 0.51 0.62 0.67 0.83 0.91 1.01 0.91 0.99 0.96 0.90 0.90 0.84 0.84 0.89 0.90 0.90 0.92 0.86 0.85 0.87 0.96 1.00 0.91 0.96 1.04 1.08 1.25 1.32 1.02 0.83 0.82
1.13 1.21 1.19 0.93 0.71 0.74 0.85 0.97 0.80 0.75 0.74 0.76 0.72 0.64 0.62 0.50 0.47 0.44 0.46 0.53 0.60 0.77 0.89 1.03 1.03 1.00 1.05 1.07 1.09 1.03 0.99 1.00 0.99 0.98 0.95 0.96 0.98 1.04 1.11 1.12 1.06 1.05 1.07 1.17 1.18 1.40 1.38 1.17 1.07
1.08 0.96 0.91 0.82 0.72 0.72 0.73 0.65 0.64 0.64 0.66 0.62 0.63 0.60 0.54 0.48 0.47 0.44 0.40 0.43 0.50 0.67 0.81 0.96 1.11 1.21 1.27 1.29 1.34 1.32 1.22 1.15 1.16 1.18 1.15 1.17 1.25 1.21 1.26 1.29 1.30 1.37 1.34 1.33 1.28 1.47 1.59 1.39 1.36
0.74 0.74 0.75 0.64 0.57 0.60 0.55 0.49 0.54 0.58 0.62 0.55 0.56 0.55 0.46 0.41 0.44 0.42 0.37 0.40 0.45 0.57 0.67 0.83 1.21 1.65 1.82 1.71 1.69 1.73 1.78 1.75 1.64 1.61 1.58 1.62 1.62 1.63 1.67 1.65 1.64 1.61 1.56 1.62 1.61 1.88 2.23 1.76 1.52
0.69 0.75 0.77 0.67 0.48 0.48 0.48 0.42 0.43 0.50 0.51 0.47 0.44 0.47 0.42 0.38 0.36 0.33 0.31 0.36 0.40 0.58 0.74 0.86 1.15 1.60 1.80 1.91 2.02 2.22 2.38 2.25 2.11 2.08 2.03 2.09 2.11 2.26 2.22 2.21 2.21 2.13 2.13 2.11 2.03 2.14 2.45 2.09 1.83
0.69 0.71 0.71 0.64 0.50 0.44 0.43 0.45 0.41 0.46 0.41 0.39 0.39 0.40 0.36 0.29 0.28 0.29 0.29 0.34 0.38 0.51 0.66 0.79 1.00 1.30 1.64 1.90 2.16 2.43 2.65 2.62 2.49 2.31 2.28 2.35 2.40 2.54 2.67 2.65 2.72 2.55 2.42 2.46 2.37 2.33 2.52 2.58 2.28
0.71 0.48 0.44 0.45 0.58 0.60 0.45 0.68 0.49 0.47 0.43 0.38 0.38 0.38 0.36 0.31 0.29 0.33 0.31 0.34 0.38 0.46 0.57 0.75 0.96 1.20 1.43 1.66 2.06 2.48 2.76 2.85 2.75 2.65 2.61 2.56 2.57 2.62 2.82 2.85 2.96 2.81 2.70 2.67 2.57 2.39 2.54 2.85 2.77
0.53 0.41 0.41 0.44 0.54 0.50 0.35 0.49 0.48 0.40 0.42 0.37 0.34 0.33 0.33 0.31 0.32 0.36 0.37 0.41 0.47 0.52 0.58 0.73 0.90 1.12 1.36 1.58 1.93 2.31 2.56 2.76 2.89 2.72 2.59 2.60 2.64 2.66 2.79 2.92 3.02 2.88 2.77 2.70 2.80 2.70 2.64 2.56 2.57
0.41 0.45 0.44 0.46 0.53 0.59 0.29 0.42 0.54 0.38 0.35 0.35 0.31 0.28 0.29 0.33 0.38 0.43 0.53 0.59 0.62 0.58 0.63 0.74 0.87 1.05 1.20 1.32 1.53 1.75 2.08 2.29 2.61 2.60 2.53 2.65 2.63 2.55 2.49 2.66 2.89 2.82 2.81 2.81 2.88 2.94 2.86 2.83 2.84
0.41 0.63 0.83 0.84 0.81 0.55 0.23 0.38 0.52 0.38 0.30 0.31 0.32 0.29 0.30 0.35 0.41 0.50 0.65 0.73 0.77 0.69 0.65 0.71 0.89 0.98 1.07 1.15 1.23 1.35 1.58 1.71 2.07 2.38 2.35 2.27 2.32 2.37 2.43 2.48 2.49 2.48 2.57 2.71 2.92 2.90 2.79 2.77 2.88
0.34 0.55 0.87 1.01 0.88 0.57 0.38 0.55 0.59 0.43 0.35 0.31 0.30 0.33 0.38 0.42 0.49 0.67 0.84 0.91 0.91 0.82 0.76 0.81 0.96 1.04 1.07 1.10 1.12 1.19 1.27 1.33 1.49 1.70 1.81 1.83 1.87 2.09 2.22 2.33 2.30 2.31 2.39 2.48 2.60 2.62 2.65 2.61 2.60
0.30 0.37 0.43 0.62 0.59 0.63 0.60 0.67 0.60 0.40 0.38 0.38 0.40 0.45 0.56 0.65 0.70 0.83 0.99 1.08 1.00 0.88 0.81 0.87 0.99 1.13 1.14 1.16 1.18 1.24 1.23 1.19 1.27 1.29 1.42 1.59 1.63 1.69 1.83 1.92 2.03 2.15 2.21 2.29 2.45 2.50 2.49 2.51 2.51
0.22 0.29 0.44 0.67 0.85 0.89 0.72 0.73 0.71 0.59 0.54 0.50 0.54 0.60 0.72 0.83 0.91 1.00 1.14 1.19 1.07 0.94 0.86 0.90 1.01 1.13 1.32 1.43 1.35 1.29 1.34 1.37 1.55 1.56 1.40 1.38 1.54 1.60 1.64 1.68 1.76 1.93 2.04 2.14 2.22 2.32 2.42 2.42 2.42
0.27 0.37 0.51 0.69 0.72 0.99 1.12 1.02 0.80 0.72 0.71 0.73 0.78 0.82 0.88 1.01 1.02 1.01 1.12 1.20 1.10 0.92 0.85 0.85 0.90 1.01 1.15 1.19 1.23 1.19 1.26 1.36 1.60 1.80 1.74 1.54 1.51 1.53 1.52 1.48 1.54 1.69 1.81 1.93 2.04 2.10 2.11 2.12 2.25
0.36 0.47 0.68 1.05 0.99 0.91 1.11 1.10 0.78 0.71 0.74 0.76 0.77 0.76 0.80 0.91 0.91 0.96 1.02 0.98 0.90 0.77 0.70 0.70 0.72 0.83 0.98 0.98 1.04 1.11 1.13 1.23 1.34 1.45 1.48 1.39 1.27 1.24 1.29 1.34 1.34 1.43 1.61 1.75 1.78 1.79 1.81 1.85 1.96